SVJC/LSP METAR and TAF weather

Enter ICAO airport designator
Station Type Date Time Source
SVJC METAR 2018/06/23 10:00 UTC NOAA

SVJC 231000Z NI


Station Type Date Time Source
SVJC Decoded METAR 2018/06/23 10:00 UTC NOAA

Paraguana / Josefa, Venezuela (SVJC) 11-47N 070-09W
Jun 23, 2018 - 06:00 AM EDT / 2018.06.23 1000 UTC
ob: SVJC 231000Z NI
cycle: 10

Station Type Date Time Source
SVJC TAF 2019/08/24 18:06 UTC NOAA

TAF TAF SVJC 241600Z 2418/2518 09010KT 9999 SCT016 TX34/19Z TN22/08Z
BECMG 2418/2422 27010KT 9999 SCT016

Example: see airport list